TimeCDT,TemperatureF,Dew PointF,Humidity,Sea Level PressureIn,VisibilityMPH,Wind Direction,Wind SpeedMPH,Gust SpeedMPH,PrecipitationIn,Events,Conditions,WindDirDegrees,DateUTC
12:53 AM,90.0,64.0,42,29.80,10.0,West,6.9,-,N/A,,Partly Cloudy,260,2013-08-07 05:53:00
1:53 AM,88.0,64.9,46,29.83,10.0,Variable,6.9,-,N/A,,Partly Cloudy,0,2013-08-07 06:53:00
2:53 AM,82.9,66.0,56,29.81,10.0,ENE,4.6,-,N/A,,Clear,60,2013-08-07 07:53:00
3:53 AM,79.0,66.9,66,29.80,10.0,SE,3.5,-,N/A,,Clear,130,2013-08-07 08:53:00
4:53 AM,78.1,68.0,71,29.79,10.0,ESE,4.6,-,N/A,,Clear,120,2013-08-07 09:53:00
5:53 AM,79.0,68.0,69,29.79,10.0,NW,3.5,-,N/A,,Clear,320,2013-08-07 10:53:00
6:53 AM,80.1,68.0,67,29.79,10.0,SE,6.9,-,N/A,,Clear,130,2013-08-07 11:53:00
7:53 AM,82.0,66.9,60,29.80,8.0,SSE,4.6,-,N/A,,Clear,160,2013-08-07 12:53:00
8:53 AM,82.9,71.1,67,29.82,9.0,NE,5.8,-,N/A,,Clear,40,2013-08-07 13:53:00
9:53 AM,84.0,72.0,67,29.85,9.0,NNE,5.8,-,N/A,,Scattered Clouds,20,2013-08-07 14:53:00
10:53 AM,88.0,71.1,57,29.85,9.0,ENE,6.9,-,N/A,,Partly Cloudy,70,2013-08-07 15:53:00
11:53 AM,91.0,70.0,50,29.84,8.0,ESE,8.1,-,N/A,,Clear,110,2013-08-07 16:53:00
12:53 PM,93.0,71.1,49,29.83,8.0,East,8.1,17.3,N/A,,Clear,100,2013-08-07 17:53:00
1:53 PM,93.9,72.0,49,29.82,8.0,East,10.4,-,N/A,,Clear,90,2013-08-07 18:53:00
2:53 PM,95.0,71.1,46,29.82,8.0,East,8.1,-,N/A,,Clear,90,2013-08-07 19:53:00
3:53 PM,95.0,73.0,49,29.82,7.0,Variable,5.8,-,N/A,,Clear,0,2013-08-07 20:53:00
4:53 PM,95.0,72.0,47,29.81,7.0,ESE,9.2,-,N/A,,Clear,120,2013-08-07 21:53:00
5:53 PM,93.9,73.9,52,29.81,7.0,SE,8.1,-,N/A,,Clear,130,2013-08-07 22:53:00
6:53 PM,91.9,73.9,55,29.79,6.0,ESE,6.9,-,N/A,,Haze,120,2013-08-07 23:53:00
7:53 PM,90.0,75.0,61,29.79,6.0,East,3.5,-,N/A,,Haze,100,2013-08-08 00:53:00
8:53 PM,87.1,75.9,69,29.79,7.0,ENE,6.9,-,N/A,,Clear,70,2013-08-08 01:53:00
9:53 PM,86.0,73.9,67,29.82,8.0,East,5.8,-,N/A,,Partly Cloudy,80,2013-08-08 02:53:00
10:53 PM,84.0,75.9,76,29.82,8.0,ENE,11.5,-,N/A,,Clear,70,2013-08-08 03:53:00
11:53 PM,82.0,75.9,82,29.82,9.0,ENE,12.7,18.4,0.00,,Partly Cloudy,70,2013-08-08 04:53:00